Time,TemperatureF,DewpointF,PressureIn,WindDirection,WindDirectionDegrees,WindSpeedMPH,WindSpeedGustMPH,Humidity,HourlyPrecipIn,Conditions,Clouds,dailyrainin,SoftwareType,DateUTC
2013-03-22 00:00:00,26.6,0.1,29.68,North,-999,0.0,2.2,31,0.00,,,-99.99,FreeWX-Wi 1.02,2013-03-22 04:00:00,
2013-03-22 00:05:00,26.4,-1.5,29.68,North,-999,0.0,0.0,29,0.00,,,-99.99,FreeWX-Wi 1.02,2013-03-22 04:05:00,
2013-03-22 00:10:00,26.4,-2.2,29.68,North,-999,0.0,3.6,28,0.00,,,-99.99,FreeWX-Wi 1.02,2013-03-22 04:10:00,
2013-03-22 00:15:00,26.6,-2.0,29.68,North,-999,0.0,2.7,28,0.00,,,-99.99,FreeWX-Wi 1.02,2013-03-22 04:15:00,
2013-03-22 00:20:00,26.8,-2.7,29.68,North,-999,0.0,4.0,27,0.00,,,-99.99,FreeWX-Wi 1.02,2013-03-22 04:20:00,
2013-03-22 00:25:00,26.8,-2.7,29.68,North,-999,0.0,3.6,27,0.00,,,-99.99,FreeWX-Wi 1.02,2013-03-22 04:25:00,
2013-03-22 00:30:00,26.8,-2.7,29.68,NNE,20,1.0,3.1,27,0.00,,,-99.99,FreeWX-Wi 1.02,2013-03-22 04:30:00,
2013-03-22 00:35:00,26.6,-2.0,29.68,NNE,20,1.0,3.1,28,0.00,,,-99.99,FreeWX-Wi 1.02,2013-03-22 04:35:00,
2013-03-22 00:40:00,26.6,-2.0,29.68,NNE,20,1.0,3.1,28,0.00,,,-99.99,FreeWX-Wi 1.02,2013-03-22 04:40:00,
2013-03-22 00:45:00,26.6,-2.0,29.68,NNE,20,1.0,3.6,28,0.00,,,-99.99,FreeWX-Wi 1.02,2013-03-22 04:45:00,
2013-03-22 00:50:00,27.1,-2.4,29.68,NNE,20,1.0,4.0,27,0.00,,,-99.99,FreeWX-Wi 1.02,2013-03-22 04:50:00,
2013-03-22 00:55:00,27.5,-2.0,29.71,NNE,20,1.0,4.9,27,0.00,,,-99.99,FreeWX-Wi 1.02,2013-03-22 04:55:00,
2013-03-22 01:00:00,27.3,-2.2,29.71,NNE,20,2.0,4.0,27,0.00,,,-99.99,FreeWX-Wi 1.02,2013-03-22 05:00:00,
2013-03-22 01:06:00,27.1,-2.4,29.71,NNE,20,2.0,4.0,27,0.00,,,-99.99,FreeWX-Wi 1.02,2013-03-22 05:06:00,
2013-03-22 01:11:00,27.3,-2.2,29.71,NNE,20,2.0,5.4,27,0.00,,,-99.99,FreeWX-Wi 1.02,2013-03-22 05:11:00,
2013-03-22 01:16:00,27.1,-2.4,29.71,NNE,20,2.0,3.1,27,0.00,,,-99.99,FreeWX-Wi 1.02,2013-03-22 05:16:00,
2013-03-22 01:21:00,26.8,-2.7,29.71,NNE,20,2.0,4.0,27,0.00,,,-99.99,FreeWX-Wi 1.02,2013-03-22 05:21:00,
2013-03-22 01:26:00,26.4,-2.2,29.71,NNE,20,2.0,3.1,28,0.00,,,-99.99,FreeWX-Wi 1.02,2013-03-22 05:26:00,
2013-03-22 01:31:00,26.4,-2.2,29.71,NNE,20,2.0,3.6,28,0.00,,,-99.99,FreeWX-Wi 1.02,2013-03-22 05:31:00,
2013-03-22 01:36:00,26.1,-2.6,29.71,NNE,20,1.0,2.7,28,0.00,,,-99.99,FreeWX-Wi 1.02,2013-03-22 05:36:00,
2013-03-22 01:41:00,26.2,-2.4,29.71,NNE,20,1.0,2.7,28,0.00,,,-99.99,FreeWX-Wi 1.02,2013-03-22 05:41:00,
2013-03-22 01:46:00,26.1,-2.6,29.71,NNE,20,1.0,3.1,28,0.00,,,-99.99,FreeWX-Wi 1.02,2013-03-22 05:46:00,
2013-03-22 01:51:00,25.9,-2.7,29.71,NNE,20,1.0,3.6,28,0.00,,,-99.99,FreeWX-Wi 1.02,2013-03-22 05:51:00,
2013-03-22 01:56:00,25.9,-2.7,29.71,NNE,20,1.0,3.1,28,0.00,,,-99.99,FreeWX-Wi 1.02,2013-03-22 05:56:00,
2013-03-22 02:01:00,25.7,-2.9,29.71,North,-999,0.0,3.1,28,0.00,,,-99.99,FreeWX-Wi 1.02,2013-03-22 06:01:00,
2013-03-22 02:06:00,25.7,-2.9,29.71,North,-999,0.0,3.1,28,0.00,,,-99.99,FreeWX-Wi 1.02,2013-03-22 06:06:00,
2013-03-22 02:11:00,25.3,-3.1,29.71,North,-999,0.0,0.0,28,0.00,,,-99.99,FreeWX-Wi 1.02,2013-03-22 06:11:00,
2013-03-22 02:16:00,25.3,-3.1,29.71,North,-999,0.0,0.0,28,0.00,,,-99.99,FreeWX-Wi 1.02,2013-03-22 06:16:00,
2013-03-22 02:21:00,25.2,-3.3,29.71,North,-999,0.0,0.0,28,0.00,,,-99.99,FreeWX-Wi 1.02,2013-03-22 06:21:00,
2013-03-22 02:26:00,25.3,-3.1,29.71,North,-999,0.0,3.6,28,0.00,,,-99.99,FreeWX-Wi 1.02,2013-03-22 06:26:00,
2013-03-22 02:31:00,25.3,-3.1,29.71,North,-999,0.0,3.1,28,0.00,,,-99.99,FreeWX-Wi 1.02,2013-03-22 06:31:00,
2013-03-22 02:36:00,25.2,-3.3,29.71,North,-999,0.0,0.0,28,0.00,,,-99.99,FreeWX-Wi 1.02,2013-03-22 06:36:00,
2013-03-22 02:41:00,25.0,-3.5,29.71,North,-999,0.0,0.0,28,0.00,,,-99.99,FreeWX-Wi 1.02,2013-03-22 06:41:00,
2013-03-22 02:47:00,24.8,-3.6,29.71,North,-999,0.0,2.2,28,0.00,,,-99.99,FreeWX-Wi 1.02,2013-03-22 06:47:00,
2013-03-22 02:52:00,24.8,-3.6,29.71,North,-999,0.0,2.7,28,0.00,,,-99.99,FreeWX-Wi 1.02,2013-03-22 06:52:00,
2013-03-22 02:57:00,24.8,-3.6,29.71,North,-999,0.0,0.0,28,0.00,,,-99.99,FreeWX-Wi 1.02,2013-03-22 06:57:00,
2013-03-22 03:02:00,24.6,-3.8,29.71,North,-999,0.0,2.2,28,0.00,,,-99.99,FreeWX-Wi 1.02,2013-03-22 07:02:00,
2013-03-22 03:07:00,24.4,-4.0,29.71,North,-999,0.0,0.0,28,0.00,,,-99.99,FreeWX-Wi 1.02,2013-03-22 07:07:00,
2013-03-22 03:12:00,24.4,-4.0,29.68,North,-999,0.0,0.0,28,0.00,,,-99.99,FreeWX-Wi 1.02,2013-03-22 07:12:00,
2013-03-22 03:17:00,24.4,-4.0,29.68,North,-999,0.0,0.0,28,0.00,,,-99.99,FreeWX-Wi 1.02,2013-03-22 07:17:00,
2013-03-22 03:22:00,24.4,-4.0,29.68,North,-999,0.0,0.0,28,0.00,,,-99.99,FreeWX-Wi 1.02,2013-03-22 07:22:00,
2013-03-22 03:27:00,24.4,-4.0,29.68,North,-999,0.0,0.0,28,0.00,,,-99.99,FreeWX-Wi 1.02,2013-03-22 07:27:00,
2013-03-22 03:32:00,24.4,-4.0,29.68,North,-999,0.0,0.0,28,0.00,,,-99.99,FreeWX-Wi 1.02,2013-03-22 07:32:00,
2013-03-22 03:37:00,24.4,-4.0,29.68,North,-999,0.0,0.0,28,0.00,,,-99.99,FreeWX-Wi 1.02,2013-03-22 07:37:00,
2013-03-22 03:42:00,24.4,-4.0,29.68,North,-999,0.0,0.0,28,0.00,,,-99.99,FreeWX-Wi 1.02,2013-03-22 07:42:00,
2013-03-22 03:47:00,24.1,-4.2,29.68,North,-999,0.0,2.7,28,0.00,,,-99.99,FreeWX-Wi 1.02,2013-03-22 07:47:00,
2013-03-22 03:52:00,24.3,-4.2,29.68,North,-999,0.0,0.0,28,0.00,,,-99.99,FreeWX-Wi 1.02,2013-03-22 07:52:00,
2013-03-22 03:57:00,24.1,-4.2,29.68,North,-999,0.0,0.0,28,0.00,,,-99.99,FreeWX-Wi 1.02,2013-03-22 07:57:00,
2013-03-22 04:02:00,24.1,-4.2,29.68,North,-999,0.0,0.0,28,0.00,,,-99.99,FreeWX-Wi 1.02,2013-03-22 08:02:00,
2013-03-22 04:07:00,24.3,-4.2,29.68,North,-999,0.0,0.0,28,0.00,,,-99.99,FreeWX-Wi 1.02,2013-03-22 08:07:00,
2013-03-22 04:12:00,24.3,-4.2,29.68,North,-999,0.0,0.0,28,0.00,,,-99.99,FreeWX-Wi 1.02,2013-03-22 08:12:00,
2013-03-22 04:17:00,24.4,-4.0,29.68,North,-999,0.0,0.0,28,0.00,,,-99.99,FreeWX-Wi 1.02,2013-03-22 08:17:00,
2013-03-22 04:22:00,24.4,-4.0,29.68,North,-999,0.0,3.6,28,0.00,,,-99.99,FreeWX-Wi 1.02,2013-03-22 08:22:00,
2013-03-22 04:27:00,24.3,-4.2,29.68,North,-999,0.0,3.1,28,0.00,,,-99.99,FreeWX-Wi 1.02,2013-03-22 08:27:00,
2013-03-22 04:32:00,24.1,-4.2,29.68,North,-999,0.0,4.0,28,0.00,,,-99.99,FreeWX-Wi 1.02,2013-03-22 08:32:00,
2013-03-22 04:37:00,24.3,-4.2,29.68,North,-999,0.0,3.6,28,0.00,,,-99.99,FreeWX-Wi 1.02,2013-03-22 08:37:00,
2013-03-22 04:42:00,24.1,-4.2,29.68,NNE,20,1.0,3.6,28,0.00,,,-99.99,FreeWX-Wi 1.02,2013-03-22 08:42:00,
2013-03-22 04:47:00,24.1,-4.2,29.68,NNE,20,1.0,0.0,28,0.00,,,-99.99,FreeWX-Wi 1.02,2013-03-22 08:47:00,
2013-03-22 04:52:00,23.9,-4.4,29.68,North,-999,0.0,0.0,28,0.00,,,-99.99,FreeWX-Wi 1.02,2013-03-22 08:52:00,
2013-03-22 04:57:00,23.9,-4.4,29.68,North,-999,0.0,0.0,28,0.00,,,-99.99,FreeWX-Wi 1.02,2013-03-22 08:57:00,
2013-03-22 05:02:00,23.7,-4.5,29.68,North,-999,0.0,0.0,28,0.00,,,-99.99,FreeWX-Wi 1.02,2013-03-22 09:02:00,
2013-03-22 05:07:00,23.5,-4.7,29.68,North,-999,0.0,0.0,28,0.00,,,-99.99,FreeWX-Wi 1.02,2013-03-22 09:07:00,
2013-03-22 05:12:00,23.5,-4.7,29.68,North,-999,0.0,3.1,28,0.00,,,-99.99,FreeWX-Wi 1.02,2013-03-22 09:12:00,
2013-03-22 05:17:00,23.5,-4.7,29.68,North,-999,0.0,3.1,28,0.00,,,-99.99,FreeWX-Wi 1.02,2013-03-22 09:17:00,
2013-03-22 05:22:00,23.5,-4.7,29.68,North,-999,0.0,0.0,28,0.00,,,-99.99,FreeWX-Wi 1.02,2013-03-22 09:22:00,
2013-03-22 05:27:00,23.4,-4.9,29.71,North,-999,0.0,0.0,28,0.00,,,-99.99,FreeWX-Wi 1.02,2013-03-22 09:27:00,
2013-03-22 05:32:00,23.2,-5.1,29.71,North,-999,0.0,0.0,28,0.00,,,-99.99,FreeWX-Wi 1.02,2013-03-22 09:32:00,
2013-03-22 05:37:00,23.0,-4.5,29.71,North,-999,0.0,0.0,29,0.00,,,-99.99,FreeWX-Wi 1.02,2013-03-22 09:37:00,
2013-03-22 05:42:00,22.6,-4.7,29.71,North,-999,0.0,0.0,29,0.00,,,-99.99,FreeWX-Wi 1.02,2013-03-22 09:42:00,
2013-03-22 05:47:00,22.5,-4.9,29.71,North,-999,0.0,0.0,29,0.00,,,-99.99,FreeWX-Wi 1.02,2013-03-22 09:47:00,
2013-03-22 05:52:00,22.1,-5.3,29.71,North,-999,0.0,0.0,29,0.00,,,-99.99,FreeWX-Wi 1.02,2013-03-22 09:52:00,
2013-03-22 05:57:00,21.9,-5.4,29.71,North,-999,0.0,0.0,29,0.00,,,-99.99,FreeWX-Wi 1.02,2013-03-22 09:57:00,
2013-03-22 06:02:00,21.9,-5.4,29.71,North,-999,0.0,0.0,29,0.00,,,-99.99,FreeWX-Wi 1.02,2013-03-22 10:02:00,
2013-03-22 06:07:00,21.9,-5.4,29.71,North,-999,0.0,0.0,29,0.00,,,-99.99,FreeWX-Wi 1.02,2013-03-22 10:07:00,
2013-03-22 06:12:00,21.7,-5.6,29.71,North,-999,0.0,0.0,29,0.00,,,-99.99,FreeWX-Wi 1.02,2013-03-22 10:12:00,
2013-03-22 06:17:00,21.9,-5.4,29.71,North,-999,0.0,0.0,29,0.00,,,-99.99,FreeWX-Wi 1.02,2013-03-22 10:17:00,
2013-03-22 06:22:00,21.7,-5.6,29.71,North,-999,0.0,0.0,29,0.00,,,-99.99,FreeWX-Wi 1.02,2013-03-22 10:22:00,
2013-03-22 06:27:00,21.7,-5.6,29.71,North,-999,0.0,0.0,29,0.00,,,-99.99,FreeWX-Wi 1.02,2013-03-22 10:27:00,
2013-03-22 06:32:00,21.7,-4.9,29.71,North,-999,0.0,0.0,30,0.00,,,-99.99,FreeWX-Wi 1.02,2013-03-22 10:32:00,
2013-03-22 06:37:00,21.7,-4.9,29.71,North,-999,0.0,0.0,30,0.00,,,-99.99,FreeWX-Wi 1.02,2013-03-22 10:37:00,
2013-03-22 06:42:00,21.7,-4.9,29.71,North,-999,0.0,0.0,30,0.00,,,-99.99,FreeWX-Wi 1.02,2013-03-22 10:42:00,
2013-03-22 06:47:00,21.7,-3.5,29.71,North,-999,0.0,0.0,32,0.00,,,-99.99,FreeWX-Wi 1.02,2013-03-22 10:47:00,
2013-03-22 06:52:00,21.9,-3.3,29.71,North,-999,0.0,0.0,32,0.00,,,-99.99,FreeWX-Wi 1.02,2013-03-22 10:52:00,
2013-03-22 06:57:00,21.9,-1.5,29.71,North,-999,0.0,0.0,35,0.00,,,-99.99,FreeWX-Wi 1.02,2013-03-22 10:57:00,
2013-03-22 07:02:00,22.1,-1.3,29.71,North,-999,0.0,0.0,35,0.00,,,-99.99,FreeWX-Wi 1.02,2013-03-22 11:02:00,
2013-03-22 07:07:00,22.6,-2.7,29.71,North,-999,0.0,0.0,32,0.00,,,-99.99,FreeWX-Wi 1.02,2013-03-22 11:07:00,
2013-03-22 07:12:00,23.2,-2.2,29.71,North,-999,0.0,0.0,32,0.00,,,-99.99,FreeWX-Wi 1.02,2013-03-22 11:12:00,
2013-03-22 07:17:00,23.5,-2.0,29.71,North,-999,0.0,0.0,32,0.00,,,-99.99,FreeWX-Wi 1.02,2013-03-22 11:17:00,
2013-03-22 07:22:00,23.7,-3.8,29.71,North,-999,0.0,0.0,29,0.00,,,-99.99,FreeWX-Wi 1.02,2013-03-22 11:22:00,
2013-03-22 07:27:00,23.9,-1.7,29.74,North,-999,0.0,0.0,32,0.00,,,-99.99,FreeWX-Wi 1.02,2013-03-22 11:27:00,
2013-03-22 07:32:00,23.9,-1.7,29.74,North,-999,0.0,0.0,32,0.00,,,-99.99,FreeWX-Wi 1.02,2013-03-22 11:32:00,
2013-03-22 07:37:00,23.9,-1.7,29.74,North,-999,0.0,0.0,32,0.00,,,-99.99,FreeWX-Wi 1.02,2013-03-22 11:37:00,
2013-03-22 07:42:00,24.1,-3.5,29.74,North,-999,0.0,0.0,29,0.00,,,-99.99,FreeWX-Wi 1.02,2013-03-22 11:42:00,
2013-03-22 07:47:00,24.6,-0.9,29.74,North,-999,0.0,0.0,32,0.00,,,-99.99,FreeWX-Wi 1.02,2013-03-22 11:47:00,
2013-03-22 07:53:00,25.7,-2.0,29.74,North,-999,0.0,0.0,29,0.00,,,-99.99,FreeWX-Wi 1.02,2013-03-22 11:53:00,
2013-03-22 07:58:00,26.4,-1.5,29.74,North,-999,0.0,0.0,29,0.00,,,-99.99,FreeWX-Wi 1.02,2013-03-22 11:58:00,
2013-03-22 08:03:00,26.6,-1.3,29.74,North,-999,0.0,0.0,29,0.00,,,-99.99,FreeWX-Wi 1.02,2013-03-22 12:03:00,
2013-03-22 08:08:00,26.6,-1.3,29.74,North,-999,0.0,0.0,29,0.00,,,-99.99,FreeWX-Wi 1.02,2013-03-22 12:08:00,
2013-03-22 08:13:00,27.5,-1.3,29.74,North,-999,0.0,0.0,28,0.00,,,-99.99,FreeWX-Wi 1.02,2013-03-22 12:13:00,
2013-03-22 08:18:00,28.2,-1.5,29.74,North,-999,0.0,0.0,27,0.00,,,-99.99,FreeWX-Wi 1.02,2013-03-22 12:18:00,
2013-03-22 08:23:00,29.1,-0.6,29.74,North,-999,0.0,0.0,27,0.00,,,-99.99,FreeWX-Wi 1.02,2013-03-22 12:23:00,
2013-03-22 08:28:00,31.3,1.2,29.74,North,-999,0.0,3.6,27,0.00,,,-99.99,FreeWX-Wi 1.02,2013-03-22 12:28:00,
2013-03-22 08:33:00,33.3,3.0,29.74,North,-999,0.0,2.7,27,0.00,,,-99.99,FreeWX-Wi 1.02,2013-03-22 12:33:00,
2013-03-22 08:38:00,33.4,3.0,29.74,North,-999,0.0,0.0,27,0.00,,,-99.99,FreeWX-Wi 1.02,2013-03-22 12:38:00,
2013-03-22 08:43:00,32.9,2.7,29.74,North,-999,0.0,0.0,27,0.00,,,-99.99,FreeWX-Wi 1.02,2013-03-22 12:43:00,
2013-03-22 08:48:00,32.5,2.3,29.74,North,-999,0.0,4.0,27,0.00,,,-99.99,FreeWX-Wi 1.02,2013-03-22 12:48:00,
2013-03-22 08:53:00,32.0,1.8,29.74,North,-999,0.0,0.0,27,0.00,,,-99.99,FreeWX-Wi 1.02,2013-03-22 12:53:00,
2013-03-22 08:58:00,31.3,1.2,29.74,North,-999,0.0,3.6,27,0.00,,,-99.99,FreeWX-Wi 1.02,2013-03-22 12:58:00,
2013-03-22 09:03:00,30.4,0.5,29.74,North,-999,0.0,0.0,27,0.00,,,-99.99,FreeWX-Wi 1.02,2013-03-22 13:03:00,
2013-03-22 09:08:00,31.5,1.4,29.74,North,-999,0.0,4.0,27,0.00,,,-99.99,FreeWX-Wi 1.02,2013-03-22 13:08:00,
2013-03-22 09:13:00,32.9,2.7,29.76,North,-999,0.0,2.7,27,0.00,,,-99.99,FreeWX-Wi 1.02,2013-03-22 13:13:00,
2013-03-22 09:18:00,34.2,2.8,29.76,North,-999,0.0,4.0,26,0.00,,,-99.99,FreeWX-Wi 1.02,2013-03-22 13:18:00,
2013-03-22 09:23:00,36.0,4.5,29.76,North,-999,0.0,4.0,26,0.00,,,-99.99,FreeWX-Wi 1.02,2013-03-22 13:23:00,
2013-03-22 09:28:00,35.6,4.1,29.74,North,-999,0.0,3.6,26,0.00,,,-99.99,FreeWX-Wi 1.02,2013-03-22 13:28:00,
2013-03-22 09:33:00,36.7,5.0,29.74,NW,317,1.0,3.6,26,0.00,,,-99.99,FreeWX-Wi 1.02,2013-03-22 13:33:00,
2013-03-22 09:38:00,37.6,5.0,29.74,NW,322,1.0,5.4,25,0.00,,,-99.99,FreeWX-Wi 1.02,2013-03-22 13:38:00,
2013-03-22 09:43:00,36.9,5.2,29.76,NNW,332,1.0,4.0,26,0.00,,,-99.99,FreeWX-Wi 1.02,2013-03-22 13:43:00,
2013-03-22 09:48:00,36.7,5.0,29.76,NNW,333,1.0,5.4,26,0.00,,,-99.99,FreeWX-Wi 1.02,2013-03-22 13:48:00,
2013-03-22 09:53:00,39.2,6.4,29.76,NW,324,1.0,3.6,25,0.00,,,-99.99,FreeWX-Wi 1.02,2013-03-22 13:53:00,
2013-03-22 09:58:00,38.3,5.5,29.74,NW,326,2.0,5.8,25,0.00,,,-99.99,FreeWX-Wi 1.02,2013-03-22 13:58:00,
2013-03-22 10:03:00,37.8,5.2,29.74,NW,322,2.0,5.8,25,0.00,,,-99.99,FreeWX-Wi 1.02,2013-03-22 14:03:00,
2013-03-22 10:08:00,37.4,4.8,29.74,NW,315,2.0,5.8,25,0.00,,,-99.99,FreeWX-Wi 1.02,2013-03-22 14:08:00,
2013-03-22 10:13:00,37.9,5.4,29.76,NW,314,2.0,3.6,25,0.00,,,-99.99,FreeWX-Wi 1.02,2013-03-22 14:13:00,
2013-03-22 10:18:00,40.3,7.3,29.76,NW,321,2.0,4.9,25,0.00,,,-99.99,FreeWX-Wi 1.02,2013-03-22 14:18:00,
2013-03-22 10:23:00,40.1,7.2,29.76,NW,315,2.0,5.4,25,0.00,,,-99.99,FreeWX-Wi 1.02,2013-03-22 14:23:00,
2013-03-22 10:28:00,41.2,8.1,29.74,NW,307,2.0,4.0,25,0.00,,,-99.99,FreeWX-Wi 1.02,2013-03-22 14:28:00,
2013-03-22 10:33:00,42.8,8.6,29.74,NW,308,2.0,5.8,24,0.00,,,-99.99,FreeWX-Wi 1.02,2013-03-22 14:33:00,
2013-03-22 10:38:00,41.7,8.6,29.74,NW,312,2.0,6.3,25,0.00,,,-99.99,FreeWX-Wi 1.02,2013-03-22 14:38:00,
2013-03-22 10:43:00,41.9,8.6,29.74,WNW,301,2.0,6.3,25,0.00,,,-99.99,FreeWX-Wi 1.02,2013-03-22 14:43:00,
2013-03-22 10:48:00,40.5,7.5,29.74,NW,307,2.0,4.5,25,0.00,,,-99.99,FreeWX-Wi 1.02,2013-03-22 14:48:00,
2013-03-22 10:53:00,41.0,7.9,29.74,NW,314,2.0,4.9,25,0.00,,,-99.99,FreeWX-Wi 1.02,2013-03-22 14:53:00,
2013-03-22 10:58:00,39.7,6.8,29.74,NW,316,3.0,4.9,25,0.00,,,-99.99,FreeWX-Wi 1.02,2013-03-22 14:58:00,
2013-03-22 11:03:00,40.1,7.2,29.74,NW,314,3.0,6.3,25,0.00,,,-99.99,FreeWX-Wi 1.02,2013-03-22 15:03:00,
2013-03-22 11:08:00,38.8,6.1,29.74,NW,323,2.0,4.0,25,0.00,,,-99.99,FreeWX-Wi 1.02,2013-03-22 15:08:00,
2013-03-22 11:13:00,38.8,6.1,29.74,NW,321,2.0,5.4,25,0.00,,,-99.99,FreeWX-Wi 1.02,2013-03-22 15:13:00,
2013-03-22 11:18:00,39.6,6.6,29.74,NW,314,2.0,6.3,25,0.00,,,-99.99,FreeWX-Wi 1.02,2013-03-22 15:18:00,
2013-03-22 11:23:00,39.9,7.0,29.74,NW,306,2.0,5.4,25,0.00,,,-99.99,FreeWX-Wi 1.02,2013-03-22 15:23:00,
2013-03-22 11:28:00,38.1,5.4,29.74,NW,307,3.0,4.9,25,0.00,,,-99.99,FreeWX-Wi 1.02,2013-03-22 15:28:00,
2013-03-22 11:33:00,38.5,5.7,29.74,NW,304,3.0,6.3,25,0.00,,,-99.99,FreeWX-Wi 1.02,2013-03-22 15:33:00,
2013-03-22 11:38:00,37.9,5.4,29.74,NW,306,3.0,5.8,25,0.00,,,-99.99,FreeWX-Wi 1.02,2013-03-22 15:38:00,
2013-03-22 11:43:00,38.7,5.9,29.74,NW,312,3.0,5.8,25,0.00,,,-99.99,FreeWX-Wi 1.02,2013-03-22 15:43:00,
2013-03-22 11:48:00,41.7,8.6,29.74,NW,318,3.0,5.4,25,0.00,,,-99.99,FreeWX-Wi 1.02,2013-03-22 15:48:00,
2013-03-22 11:53:00,43.3,9.0,29.74,NW,322,3.0,4.9,24,0.00,,,-99.99,FreeWX-Wi 1.02,2013-03-22 15:53:00,
2013-03-22 11:58:00,43.0,8.8,29.74,NW,322,3.0,4.0,24,0.00,,,-99.99,FreeWX-Wi 1.02,2013-03-22 15:58:00,
2013-03-22 12:03:00,41.2,8.1,29.74,NW,307,3.0,4.0,25,0.00,,,-99.99,FreeWX-Wi 1.02,2013-03-22 16:03:00,
2013-03-22 12:08:00,40.3,7.3,29.74,WNW,289,2.0,4.5,25,0.00,,,-99.99,FreeWX-Wi 1.02,2013-03-22 16:08:00,
2013-03-22 12:13:00,39.7,6.8,29.74,WNW,283,2.0,4.0,25,0.00,,,-99.99,FreeWX-Wi 1.02,2013-03-22 16:13:00,
2013-03-22 12:18:00,39.4,6.4,29.74,WNW,287,2.0,4.9,25,0.00,,,-99.99,FreeWX-Wi 1.02,2013-03-22 16:18:00,
2013-03-22 12:23:00,38.8,6.1,29.74,West,280,2.0,5.4,25,0.00,,,-99.99,FreeWX-Wi 1.02,2013-03-22 16:23:00,
2013-03-22 12:28:00,38.3,5.5,29.74,WNW,285,2.0,4.0,25,0.00,,,-99.99,FreeWX-Wi 1.02,2013-03-22 16:28:00,
2013-03-22 12:33:00,40.3,7.3,29.74,WNW,292,2.0,3.6,25,0.00,,,-99.99,FreeWX-Wi 1.02,2013-03-22 16:33:00,
2013-03-22 12:38:00,42.8,8.6,29.74,WNW,288,2.0,6.3,24,0.00,,,-99.99,FreeWX-Wi 1.02,2013-03-22 16:38:00,
2013-03-22 12:43:00,43.0,8.8,29.74,WNW,289,2.0,8.1,24,0.00,,,-99.99,FreeWX-Wi 1.02,2013-03-22 16:43:00,
2013-03-22 12:48:00,43.7,9.3,29.74,WNW,290,2.0,6.3,24,0.00,,,-99.99,FreeWX-Wi 1.02,2013-03-22 16:48:00,
2013-03-22 12:53:00,41.7,8.6,29.74,WNW,297,2.0,4.0,25,0.00,,,-99.99,FreeWX-Wi 1.02,2013-03-22 16:53:00,
2013-03-22 12:58:00,41.0,7.9,29.74,WNW,299,2.0,5.4,25,0.00,,,-99.99,FreeWX-Wi 1.02,2013-03-22 16:58:00,
2013-03-22 13:03:00,44.1,9.7,29.74,WNW,301,3.0,6.7,24,0.00,,,-99.99,FreeWX-Wi 1.02,2013-03-22 17:03:00,
2013-03-22 13:08:00,43.2,8.8,29.74,WNW,298,2.0,4.9,24,0.00,,,-99.99,FreeWX-Wi 1.02,2013-03-22 17:08:00,
2013-03-22 13:13:00,41.9,8.6,29.74,WNW,299,2.0,7.2,25,0.00,,,-99.99,FreeWX-Wi 1.02,2013-03-22 17:13:00,
2013-03-22 13:18:00,42.1,8.8,29.74,WNW,296,2.0,6.3,25,0.00,,,-99.99,FreeWX-Wi 1.02,2013-03-22 17:18:00,
2013-03-22 13:23:00,44.4,9.9,29.74,WNW,291,3.0,6.3,24,0.00,,,-99.99,FreeWX-Wi 1.02,2013-03-22 17:23:00,
2013-03-22 13:28:00,42.6,9.3,29.74,WNW,290,3.0,6.3,25,0.00,,,-99.99,FreeWX-Wi 1.02,2013-03-22 17:28:00,
2013-03-22 13:33:00,44.2,9.7,29.74,WNW,289,3.0,7.2,24,0.00,,,-99.99,FreeWX-Wi 1.02,2013-03-22 17:33:00,
2013-03-22 13:38:00,47.5,11.5,29.74,WNW,300,3.0,5.4,23,0.00,,,-99.99,FreeWX-Wi 1.02,2013-03-22 17:38:00,
2013-03-22 13:43:00,45.1,10.6,29.74,WNW,302,3.0,5.4,24,0.00,,,-99.99,FreeWX-Wi 1.02,2013-03-22 17:43:00,
2013-03-22 13:48:00,42.3,9.0,29.74,NW,304,3.0,5.4,25,0.00,,,-99.99,FreeWX-Wi 1.02,2013-03-22 17:48:00,
2013-03-22 13:53:00,43.0,8.8,29.74,NW,304,3.0,5.8,24,0.00,,,-99.99,FreeWX-Wi 1.02,2013-03-22 17:53:00,
2013-03-22 13:58:00,43.9,9.5,29.74,NW,316,2.0,4.9,24,0.00,,,-99.99,FreeWX-Wi 1.02,2013-03-22 17:58:00,
2013-03-22 14:03:00,45.9,11.1,29.74,NW,313,2.0,3.6,24,0.00,,,-99.99,FreeWX-Wi 1.02,2013-03-22 18:03:00,
2013-03-22 14:08:00,44.2,9.7,29.74,NW,318,2.0,6.3,24,0.00,,,-99.99,FreeWX-Wi 1.02,2013-03-22 18:08:00,
2013-03-22 14:13:00,42.8,8.6,29.71,NW,320,2.0,5.8,24,0.00,,,-99.99,FreeWX-Wi 1.02,2013-03-22 18:13:00,
2013-03-22 14:19:00,46.4,10.6,29.71,NW,316,2.0,5.8,23,0.00,,,-99.99,FreeWX-Wi 1.02,2013-03-22 18:19:00,
2013-03-22 14:24:00,47.3,11.5,29.71,NW,308,3.0,7.6,23,0.00,,,-99.99,FreeWX-Wi 1.02,2013-03-22 18:24:00,
2013-03-22 14:29:00,44.6,10.0,29.71,WNW,303,3.0,8.1,24,0.00,,,-99.99,FreeWX-Wi 1.02,2013-03-22 18:29:00,
2013-03-22 14:34:00,47.3,11.5,29.71,WNW,303,3.0,7.6,23,0.00,,,-99.99,FreeWX-Wi 1.02,2013-03-22 18:34:00,
2013-03-22 14:39:00,49.5,13.3,29.71,WNW,298,3.0,7.2,23,0.00,,,-99.99,FreeWX-Wi 1.02,2013-03-22 18:39:00,
2013-03-22 14:44:00,49.1,12.9,29.71,WNW,294,3.0,8.3,23,0.00,,,-99.99,FreeWX-Wi 1.02,2013-03-22 18:44:00,
2013-03-22 14:49:00,45.9,11.1,29.71,WNW,296,3.0,5.4,24,0.00,,,-99.99,FreeWX-Wi 1.02,2013-03-22 18:49:00,
2013-03-22 14:54:00,46.6,10.8,29.71,WNW,299,3.0,5.4,23,0.00,,,-99.99,FreeWX-Wi 1.02,2013-03-22 18:54:00,
2013-03-22 14:59:00,50.4,14.0,29.71,WNW,300,3.0,4.0,23,0.00,,,-99.99,FreeWX-Wi 1.02,2013-03-22 18:59:00,
2013-03-22 15:04:00,51.3,14.7,29.71,NW,309,3.0,4.5,23,0.00,,,-99.99,FreeWX-Wi 1.02,2013-03-22 19:04:00,
2013-03-22 15:09:00,47.8,11.8,29.71,WNW,297,2.0,7.6,23,0.00,,,-99.99,FreeWX-Wi 1.02,2013-03-22 19:09:00,
2013-03-22 15:14:00,48.4,12.4,29.71,WNW,291,2.0,4.5,23,0.00,,,-99.99,FreeWX-Wi 1.02,2013-03-22 19:14:00,
2013-03-22 15:19:00,49.5,13.3,29.71,WNW,292,2.0,6.3,23,0.00,,,-99.99,FreeWX-Wi 1.02,2013-03-22 19:19:00,
2013-03-22 15:24:00,46.8,10.9,29.71,WNW,290,2.0,5.8,23,0.00,,,-99.99,FreeWX-Wi 1.02,2013-03-22 19:24:00,
2013-03-22 15:29:00,44.2,9.7,29.71,WNW,284,3.0,4.0,24,0.00,,,-99.99,FreeWX-Wi 1.02,2013-03-22 19:29:00,
2013-03-22 15:34:00,42.3,9.0,29.71,WNW,283,3.0,4.9,25,0.00,,,-99.99,FreeWX-Wi 1.02,2013-03-22 19:34:00,
2013-03-22 15:39:00,41.5,8.4,29.71,WNW,289,3.0,5.4,25,0.00,,,-99.99,FreeWX-Wi 1.02,2013-03-22 19:39:00,
2013-03-22 15:44:00,41.0,7.9,29.71,WNW,284,3.0,5.8,25,0.00,,,-99.99,FreeWX-Wi 1.02,2013-03-22 19:44:00,
2013-03-22 15:49:00,40.6,7.5,29.71,WNW,285,3.0,5.8,25,0.00,,,-99.99,FreeWX-Wi 1.02,2013-03-22 19:49:00,
2013-03-22 15:54:00,41.2,8.1,29.71,West,279,3.0,5.8,25,0.00,,,-99.99,FreeWX-Wi 1.02,2013-03-22 19:54:00,
2013-03-22 15:59:00,41.7,8.6,29.74,West,277,3.0,6.3,25,0.00,,,-99.99,FreeWX-Wi 1.02,2013-03-22 19:59:00,
2013-03-22 16:04:00,42.4,9.1,29.74,West,279,3.0,5.8,25,0.00,,,-99.99,FreeWX-Wi 1.02,2013-03-22 20:04:00,
2013-03-22 16:09:00,41.9,8.6,29.74,WNW,282,3.0,8.3,25,0.00,,,-99.99,FreeWX-Wi 1.02,2013-03-22 20:09:00,
2013-03-22 16:14:00,41.7,8.6,29.74,WNW,294,2.0,4.0,25,0.00,,,-99.99,FreeWX-Wi 1.02,2013-03-22 20:14:00,
2013-03-22 16:19:00,41.2,8.1,29.74,WNW,295,2.0,5.8,25,0.00,,,-99.99,FreeWX-Wi 1.02,2013-03-22 20:19:00,
2013-03-22 16:24:00,40.5,7.5,29.74,WNW,303,2.0,4.9,25,0.00,,,-99.99,FreeWX-Wi 1.02,2013-03-22 20:24:00,
2013-03-22 16:29:00,40.3,7.3,29.74,NW,308,2.0,3.6,25,0.00,,,-99.99,FreeWX-Wi 1.02,2013-03-22 20:29:00,
2013-03-22 16:34:00,39.7,6.8,29.74,NW,311,1.0,4.9,25,0.00,,,-99.99,FreeWX-Wi 1.02,2013-03-22 20:34:00,
2013-03-22 16:39:00,40.3,7.3,29.74,NW,306,1.0,5.4,25,0.00,,,-99.99,FreeWX-Wi 1.02,2013-03-22 20:39:00,
2013-03-22 16:44:00,40.6,7.5,29.74,WNW,301,2.0,4.9,25,0.00,,,-99.99,FreeWX-Wi 1.02,2013-03-22 20:44:00,
2013-03-22 16:49:00,40.8,7.7,29.74,WNW,300,2.0,5.8,25,0.00,,,-99.99,FreeWX-Wi 1.02,2013-03-22 20:49:00,
2013-03-22 16:54:00,40.6,7.5,29.74,WNW,302,2.0,7.6,25,0.00,,,-99.99,FreeWX-Wi 1.02,2013-03-22 20:54:00,
2013-03-22 16:59:00,40.5,7.5,29.74,WNW,296,2.0,4.0,25,0.00,,,-99.99,FreeWX-Wi 1.02,2013-03-22 20:59:00,
2013-03-22 17:04:00,40.6,7.5,29.74,WNW,290,2.0,7.6,25,0.00,,,-99.99,FreeWX-Wi 1.02,2013-03-22 21:04:00,
2013-03-22 17:09:00,40.6,7.5,29.74,WNW,288,2.0,5.4,25,0.00,,,-99.99,FreeWX-Wi 1.02,2013-03-22 21:09:00,
2013-03-22 17:14:00,41.0,7.9,29.74,WNW,288,2.0,5.8,25,0.00,,,-99.99,FreeWX-Wi 1.02,2013-03-22 21:14:00,
2013-03-22 17:19:00,40.5,7.5,29.74,West,281,2.0,4.0,25,0.00,,,-99.99,FreeWX-Wi 1.02,2013-03-22 21:19:00,
2013-03-22 17:24:00,40.1,7.2,29.74,West,278,2.0,6.3,25,0.00,,,-99.99,FreeWX-Wi 1.02,2013-03-22 21:24:00,
2013-03-22 17:29:00,39.9,7.0,29.74,West,280,2.0,5.8,25,0.00,,,-99.99,FreeWX-Wi 1.02,2013-03-22 21:29:00,
2013-03-22 17:34:00,39.9,7.0,29.74,WNW,284,2.0,6.3,25,0.00,,,-99.99,FreeWX-Wi 1.02,2013-03-22 21:34:00,
2013-03-22 17:39:00,39.6,6.6,29.74,WNW,282,3.0,7.2,25,0.00,,,-99.99,FreeWX-Wi 1.02,2013-03-22 21:39:00,
2013-03-22 17:44:00,39.2,6.4,29.74,WNW,288,3.0,5.8,25,0.00,,,-99.99,FreeWX-Wi 1.02,2013-03-22 21:44:00,
2013-03-22 17:49:00,39.0,6.3,29.74,WNW,297,3.0,5.8,25,0.00,,,-99.99,FreeWX-Wi 1.02,2013-03-22 21:49:00,
2013-03-22 17:54:00,38.8,6.1,29.74,WNW,297,2.0,5.4,25,0.00,,,-99.99,FreeWX-Wi 1.02,2013-03-22 21:54:00,
2013-03-22 17:59:00,38.5,5.7,29.74,WNW,295,2.0,5.8,25,0.00,,,-99.99,FreeWX-Wi 1.02,2013-03-22 21:59:00,
2013-03-22 18:04:00,37.8,5.2,29.74,WNW,294,2.0,5.4,25,0.00,,,-99.99,FreeWX-Wi 1.02,2013-03-22 22:04:00,
2013-03-22 18:09:00,37.0,5.4,29.74,WNW,289,2.0,6.3,26,0.00,,,-99.99,FreeWX-Wi 1.02,2013-03-22 22:09:00,
2013-03-22 18:14:00,36.7,5.0,29.74,WNW,282,2.0,5.4,26,0.00,,,-99.99,FreeWX-Wi 1.02,2013-03-22 22:14:00,
2013-03-22 18:19:00,36.3,4.8,29.74,West,281,2.0,7.6,26,0.00,,,-99.99,FreeWX-Wi 1.02,2013-03-22 22:19:00,
2013-03-22 18:24:00,36.3,4.8,29.74,WNW,282,3.0,6.7,26,0.00,,,-99.99,FreeWX-Wi 1.02,2013-03-22 22:24:00,
2013-03-22 18:29:00,36.3,4.8,29.76,WNW,282,2.0,5.8,26,0.00,,,-99.99,FreeWX-Wi 1.02,2013-03-22 22:29:00,
2013-03-22 18:34:00,36.1,4.6,29.76,West,281,2.0,5.4,26,0.00,,,-99.99,FreeWX-Wi 1.02,2013-03-22 22:34:00,
2013-03-22 18:39:00,35.8,4.3,29.76,WNW,283,2.0,4.0,26,0.00,,,-99.99,FreeWX-Wi 1.02,2013-03-22 22:39:00,
2013-03-22 18:44:00,35.8,4.3,29.76,WNW,282,2.0,4.0,26,0.00,,,-99.99,FreeWX-Wi 1.02,2013-03-22 22:44:00,
2013-03-22 18:49:00,35.4,3.9,29.76,WNW,282,2.0,4.0,26,0.00,,,-99.99,FreeWX-Wi 1.02,2013-03-22 22:49:00,
2013-03-22 18:54:00,35.4,3.9,29.76,WNW,283,1.0,4.0,26,0.00,,,-99.99,FreeWX-Wi 1.02,2013-03-22 22:54:00,
2013-03-22 18:59:00,35.1,3.7,29.76,WNW,284,1.0,3.1,26,0.00,,,-99.99,FreeWX-Wi 1.02,2013-03-22 22:59:00,
2013-03-22 19:04:00,34.7,3.4,29.76,WNW,290,1.0,5.8,26,0.00,,,-99.99,FreeWX-Wi 1.02,2013-03-22 23:04:00,
2013-03-22 19:09:00,35.1,3.7,29.76,WNW,293,1.0,3.1,26,0.00,,,-99.99,FreeWX-Wi 1.02,2013-03-22 23:09:00,
2013-03-22 19:14:00,35.1,3.7,29.76,WNW,290,1.0,4.9,26,0.00,,,-99.99,FreeWX-Wi 1.02,2013-03-22 23:14:00,
2013-03-22 19:19:00,34.7,3.4,29.76,West,278,1.0,3.1,26,0.00,,,-99.99,FreeWX-Wi 1.02,2013-03-22 23:19:00,
2013-03-22 19:24:00,34.7,3.4,29.76,West,275,1.0,4.9,26,0.00,,,-99.99,FreeWX-Wi 1.02,2013-03-22 23:24:00,
2013-03-22 19:29:00,34.7,3.4,29.76,West,273,1.0,3.1,26,0.00,,,-99.99,FreeWX-Wi 1.02,2013-03-22 23:29:00,
2013-03-22 19:34:00,34.9,3.6,29.76,West,271,1.0,11.0,26,0.00,,,-99.99,FreeWX-Wi 1.02,2013-03-22 23:34:00,
2013-03-22 19:39:00,34.7,3.4,29.76,West,279,2.0,3.6,26,0.00,,,-99.99,FreeWX-Wi 1.02,2013-03-22 23:39:00,
2013-03-22 19:44:00,34.3,3.0,29.76,West,281,2.0,4.9,26,0.00,,,-99.99,FreeWX-Wi 1.02,2013-03-22 23:44:00,
2013-03-22 19:49:00,34.0,2.7,29.76,WNW,290,2.0,4.0,26,0.00,,,-99.99,FreeWX-Wi 1.02,2013-03-22 23:49:00,
2013-03-22 19:54:00,33.6,3.2,29.76,WNW,291,2.0,3.6,27,0.00,,,-99.99,FreeWX-Wi 1.02,2013-03-22 23:54:00,
2013-03-22 19:59:00,33.4,3.0,29.79,WNW,289,1.0,0.0,27,0.00,,,-99.99,FreeWX-Wi 1.02,2013-03-22 23:59:00,
2013-03-22 20:04:00,33.4,3.0,29.79,WNW,287,1.0,2.2,27,0.00,,,-99.99,FreeWX-Wi 1.02,2013-03-23 00:04:00,
2013-03-22 20:09:00,33.4,3.0,29.79,North,-999,0.0,0.0,27,0.00,,,-99.99,FreeWX-Wi 1.02,2013-03-23 00:09:00,
2013-03-22 20:14:00,33.3,3.0,29.79,North,-999,0.0,0.0,27,0.00,,,-99.99,FreeWX-Wi 1.02,2013-03-23 00:14:00,
2013-03-22 20:19:00,33.3,3.0,29.79,North,-999,0.0,0.0,27,0.00,,,-99.99,FreeWX-Wi 1.02,2013-03-23 00:19:00,
2013-03-22 20:24:00,33.1,2.8,29.79,North,-999,0.0,0.0,27,0.00,,,-99.99,FreeWX-Wi 1.02,2013-03-23 00:24:00,
2013-03-22 20:29:00,33.1,2.8,29.79,North,-999,0.0,0.0,27,0.00,,,-99.99,FreeWX-Wi 1.02,2013-03-23 00:29:00,
2013-03-22 20:34:00,33.1,2.8,29.79,North,-999,0.0,4.0,27,0.00,,,-99.99,FreeWX-Wi 1.02,2013-03-23 00:34:00,
2013-03-22 20:39:00,33.1,2.8,29.79,North,-999,0.0,2.2,27,0.00,,,-99.99,FreeWX-Wi 1.02,2013-03-23 00:39:00,
2013-03-22 20:44:00,33.3,3.0,29.79,North,-999,0.0,0.0,27,0.00,,,-99.99,FreeWX-Wi 1.02,2013-03-23 00:44:00,
2013-03-22 20:49:00,33.6,3.2,29.79,North,-999,0.0,4.0,27,0.00,,,-99.99,FreeWX-Wi 1.02,2013-03-23 00:49:00,
2013-03-22 20:54:00,33.6,3.2,29.79,North,-999,0.0,3.1,27,0.00,,,-99.99,FreeWX-Wi 1.02,2013-03-23 00:54:00,
2013-03-22 20:59:00,33.6,3.2,29.79,North,-999,0.0,0.0,27,0.00,,,-99.99,FreeWX-Wi 1.02,2013-03-23 00:59:00,
2013-03-22 21:04:00,33.3,3.0,29.79,North,-999,0.0,3.1,27,0.00,,,-99.99,FreeWX-Wi 1.02,2013-03-23 01:04:00,
2013-03-22 21:09:00,33.1,2.8,29.79,WSW,256,1.0,4.0,27,0.00,,,-99.99,FreeWX-Wi 1.02,2013-03-23 01:09:00,
2013-03-22 21:14:00,33.1,2.8,29.79,North,-999,0.0,2.7,27,0.00,,,-99.99,FreeWX-Wi 1.02,2013-03-23 01:14:00,
2013-03-22 21:19:00,32.9,2.7,29.79,North,-999,0.0,3.1,27,0.00,,,-99.99,FreeWX-Wi 1.02,2013-03-23 01:19:00,
2013-03-22 21:24:00,32.5,2.3,29.79,North,-999,0.0,3.1,27,0.00,,,-99.99,FreeWX-Wi 1.02,2013-03-23 01:24:00,
2013-03-22 21:29:00,32.5,2.3,29.82,West,280,1.0,5.4,27,0.00,,,-99.99,FreeWX-Wi 1.02,2013-03-23 01:29:00,
2013-03-22 21:34:00,32.5,2.3,29.82,North,-999,0.0,0.0,27,0.00,,,-99.99,FreeWX-Wi 1.02,2013-03-23 01:34:00,
2013-03-22 21:39:00,32.2,1.9,29.82,North,-999,0.0,3.1,27,0.00,,,-99.99,FreeWX-Wi 1.02,2013-03-23 01:39:00,
2013-03-22 21:44:00,32.2,1.9,29.82,North,-999,0.0,5.4,27,0.00,,,-99.99,FreeWX-Wi 1.02,2013-03-23 01:44:00,
2013-03-22 21:49:00,32.5,2.3,29.82,North,-999,0.0,3.1,27,0.00,,,-99.99,FreeWX-Wi 1.02,2013-03-23 01:49:00,
2013-03-22 21:54:00,32.4,2.1,29.82,North,-999,0.0,4.5,27,0.00,,,-99.99,FreeWX-Wi 1.02,2013-03-23 01:54:00,
2013-03-22 21:59:00,32.2,1.9,29.82,North,-999,0.0,2.7,27,0.00,,,-99.99,FreeWX-Wi 1.02,2013-03-23 01:59:00,
2013-03-22 22:04:00,31.8,1.8,29.82,North,-999,0.0,4.0,27,0.00,,,-99.99,FreeWX-Wi 1.02,2013-03-23 02:04:00,
2013-03-22 22:09:00,31.8,1.8,29.82,North,-999,0.0,0.0,27,0.00,,,-99.99,FreeWX-Wi 1.02,2013-03-23 02:09:00,
2013-03-22 22:14:00,31.6,1.6,29.82,North,-999,0.0,0.0,27,0.00,,,-99.99,FreeWX-Wi 1.02,2013-03-23 02:14:00,
2013-03-22 22:19:00,31.6,1.6,29.82,North,-999,0.0,3.1,27,0.00,,,-99.99,FreeWX-Wi 1.02,2013-03-23 02:19:00,
2013-03-22 22:24:00,31.3,1.2,29.82,North,-999,0.0,0.0,27,0.00,,,-99.99,FreeWX-Wi 1.02,2013-03-23 02:24:00,
2013-03-22 22:29:00,31.1,1.0,29.82,North,-999,0.0,0.0,27,0.00,,,-99.99,FreeWX-Wi 1.02,2013-03-23 02:29:00,
2013-03-22 22:34:00,31.1,1.0,29.82,North,-999,0.0,0.0,27,0.00,,,-99.99,FreeWX-Wi 1.02,2013-03-23 02:34:00,
2013-03-22 22:39:00,30.6,0.7,29.82,North,-999,0.0,0.0,27,0.00,,,-99.99,FreeWX-Wi 1.02,2013-03-23 02:39:00,
2013-03-22 22:44:00,30.2,0.3,29.82,North,-999,0.0,0.0,27,0.00,,,-99.99,FreeWX-Wi 1.02,2013-03-23 02:44:00,
2013-03-22 22:49:00,30.2,0.3,29.82,North,-999,0.0,0.0,27,0.00,,,-99.99,FreeWX-Wi 1.02,2013-03-23 02:49:00,
2013-03-22 22:54:00,30.0,0.1,29.82,North,-999,0.0,0.0,27,0.00,,,-99.99,FreeWX-Wi 1.02,2013-03-23 02:54:00,
2013-03-22 22:59:00,29.8,0.0,29.82,North,-999,0.0,3.6,27,0.00,,,-99.99,FreeWX-Wi 1.02,2013-03-23 02:59:00,
2013-03-22 23:04:00,30.0,0.1,29.82,North,-999,0.0,0.0,27,0.00,,,-99.99,FreeWX-Wi 1.02,2013-03-23 03:04:00,
2013-03-22 23:09:00,30.0,0.1,29.82,North,-999,0.0,0.0,27,0.00,,,-99.99,FreeWX-Wi 1.02,2013-03-23 03:09:00,
2013-03-22 23:14:00,29.8,0.0,29.82,North,-999,0.0,3.1,27,0.00,,,-99.99,FreeWX-Wi 1.02,2013-03-23 03:14:00,
2013-03-22 23:19:00,29.8,0.7,29.82,North,-999,0.0,4.0,28,0.00,,,-99.99,FreeWX-Wi 1.02,2013-03-23 03:19:00,
2013-03-22 23:24:00,29.8,0.7,29.82,North,-999,0.0,0.0,28,0.00,,,-99.99,FreeWX-Wi 1.02,2013-03-23 03:24:00,
2013-03-22 23:29:00,29.5,0.5,29.82,North,-999,0.0,0.0,28,0.00,,,-99.99,FreeWX-Wi 1.02,2013-03-23 03:29:00,
2013-03-22 23:34:00,29.1,0.1,29.82,North,-999,0.0,0.0,28,0.00,,,-99.99,FreeWX-Wi 1.02,2013-03-23 03:34:00,
2013-03-22 23:39:00,29.1,1.6,29.82,North,-999,0.0,0.0,30,0.00,,,-99.99,FreeWX-Wi 1.02,2013-03-23 03:39:00,
2013-03-22 23:44:00,28.9,1.4,29.82,North,-999,0.0,3.1,30,0.00,,,-99.99,FreeWX-Wi 1.02,2013-03-23 03:44:00,
2013-03-22 23:49:00,28.8,1.2,29.82,North,-999,0.0,0.0,30,0.00,,,-99.99,FreeWX-Wi 1.02,2013-03-23 03:49:00,
2013-03-22 23:54:00,28.8,1.2,29.82,North,-999,0.0,0.0,30,0.00,,,-99.99,FreeWX-Wi 1.02,2013-03-23 03:54:00,
2013-03-22 23:59:00,28.8,1.2,29.82,North,-999,0.0,0.0,30,0.00,,,-99.99,FreeWX-Wi 1.02,2013-03-23 03:59:00,